N5KR Weather Reports


Display with metric or nautical units.
time (UTC)temp
F
wind
direction
speed
MPH
gust
MPH
rain 1hr
in
rain 24hr
in
rain mn
in
humidity
%
barometer
mb
20260509115004 67 141 0.0 0.0 0.00 0.08 0.00 92 1010.3
20260509114504 68 141 0.0 0.0 0.00 0.08 0.00 92 1010.1
20260509114004 68 141 0.0 0.0 0.00 0.08 0.00 92 1010.0
20260509113504 68 141 0.0 0.0 0.00 0.08 0.00 91 1010.0
20260509113004 68 141 0.0 0.0 0.00 0.08 0.00 91 1009.8
20260509112504 68 141 0.0 0.0 0.00 0.08 0.00 91 1009.8
20260509112004 68 141 0.0 0.0 0.00 0.08 0.00 91 1009.6
20260509111505 68 141 0.0 0.0 0.00 0.08 0.00 91 1009.6
20260509110504 69 141 0.0 0.0 0.00 0.18 0.00 90 1009.4
20260509110004 69 141 0.0 0.0 0.00 0.24 0.00 90 1009.3
20260509105504 69 141 0.0 0.0 0.00 0.25 0.00 89 1009.4
20260509105004 70 141 0.0 0.0 0.00 0.28 0.00 89 1009.3
20260509104504 70 141 0.0 0.0 0.00 0.28 0.00 89 1009.3
20260509104004 70 141 0.0 3.0 0.00 0.28 0.00 89 1009.3
20260509103504 70 141 0.0 3.0 0.00 0.28 0.00 89 1009.3
20260509102504 70 141 0.0 0.0 0.00 0.28 0.00 89 1009.1
20260509102004 70 141 0.0 1.0 0.00 0.29 0.00 88 1009.1
20260509101504 70 141 1.0 5.0 0.00 0.31 0.00 88 1009.2
20260509101004 70 130 3.0 7.0 0.00 0.43 0.00 88 1009.2
20260509100005 70 146 0.0 0.0 0.00 0.45 0.00 88 1009.1
20260509095504 70 146 0.0 3.0 0.00 0.45 0.00 88 1009.1
20260509093504 71 337 0.0 0.0 0.00 0.45 0.00 88 1009.1
20260509093004 71 337 0.0 0.0 0.00 0.45 0.00 88 1009.1
20260509092503 70 337 0.0 0.0 0.00 0.45 0.00 88 1009.1
20260509091504 70 209 0.0 0.0 0.00 0.45 0.00 88 1008.9
20260509091004 70 209 1.0 5.0 0.00 0.45 0.00 88 1008.5
20260509090504 70 176 0.0 7.0 0.00 0.46 0.00 88 1008.0
20260509090004 70 155 4.0 10.0 0.00 0.46 0.00 88 1007.6
20260509085504 70 119 3.0 10.0 0.00 0.46 0.00 88 1007.6
20260509085004 70 153 5.0 12.0 0.00 0.46 0.00 88 1007.5
20260509084504 70 148 4.0 12.0 0.00 0.46 0.00 88 1007.8
20260509084003 70 160 6.0 13.0 0.00 0.46 0.00 88 1007.9
20260509083503 70 163 9.0 17.0 0.00 0.46 0.00 87 1007.9
20260509082503 70 162 9.0 15.0 0.00 0.46 0.00 87 1008.3
20260509082004 70 165 8.0 14.0 0.00 0.47 0.00 87 1008.5
20260509081503 70 154 7.0 12.0 0.00 0.48 0.00 87 1008.7
20260509081004 71 168 8.0 13.0 0.00 0.48 0.00 87 1009.1
20260509080504 71 173 7.0 13.0 0.00 0.48 0.00 86 1009.3
20260509080007 71 188 5.0 13.0 0.00 0.51 0.00 86 1009.5
20260509075006 71 168 7.0 12.0 0.00 0.66 0.00 86 1009.6
20260509074507 71 182 4.0 8.0 0.00 0.66 0.00 86 1009.9
20260509074007 71 176 3.0 9.0 0.00 0.66 0.00 86 1010.0
20260509073506 71 193 3.0 8.0 0.00 0.66 0.00 86 1010.2
20260509073006 71 221 3.0 6.0 0.00 0.66 0.00 86 1010.6
20260509072007 71 189 3.0 8.0 0.00 0.66 0.00 86 1010.7
20260509071506 70 235 1.0 6.0 0.00 0.66 0.00 86 1010.7
20260509071006 70 244 2.0 9.0 0.00 0.66 0.00 86 1010.7
20260509070507 71 228 1.0 6.0 0.00 0.66 0.00 85 1011.0
20260509070006 70 252 3.0 8.0 0.00 0.66 0.00 86 1011.1
20260509065506 70 242 3.0 9.0 0.00 0.66 0.00 86 1011.0
20260509065006 70 237 2.0 9.0 0.00 0.66 0.00 85 1011.0
20260509064507 70 261 4.0 8.0 0.00 0.66 0.00 85 1010.8
20260509064006 70 253 2.0 9.0 0.00 0.66 0.00 85 1010.7
20260509063506 70 256 2.0 8.0 0.00 0.66 0.00 85 1010.4
20260509063006 70 232 1.0 9.0 0.00 0.66 0.00 85 1010.4
20260509062507 70 173 2.0 6.0 0.00 0.66 0.00 85 1010.4
20260509062006 70 182 2.0 5.0 0.00 0.66 0.00 85 1010.6
20260509061507 70 183 1.0 3.0 0.00 0.66 0.00 84 1010.7
20260509061007 70 195 1.0 5.0 0.00 0.66 0.00 84 1010.6
20260509060507 70 268 1.0 7.0 0.00 0.66 0.00 84 1010.3
20260509060006 70 197 5.0 12.0 0.00 0.66 0.00 84 1010.3
20260509055507 70 170 2.0 6.0 0.00 0.66 0.00 83 1010.6
20260509055006 70 210 1.0 5.0 0.00 0.66 0.00 83 1011.2
20260509054506 71 291 1.0 3.0 0.00 0.66 0.00 83 1011.2
20260509053507 71 293 0.0 3.0 0.00 0.66 0.00 82 1011.4
20260509053007 71 293 0.0 0.0 0.00 0.66 0.00 82 1011.3
20260509052506 71 293 0.0 0.0 0.00 0.66 0.00 81 1011.3
20260509051506 71 328 1.0 2.0 0.00 0.66 0.00 81 1012.2
20260509051006 71 344 1.0 7.0 0.00 0.66 0.00 81 1012.2
20260509050507 71 346 3.0 9.0 0.00 0.66 0.00 82 1011.7
20260509050006 71 262 0.0 3.0 0.00 0.66 0.00 81 1011.2
20260509045506 71 261 0.0 2.0 0.00 0.66 0.66 81 1010.8
20260509045006 71 190 2.0 6.0 0.00 0.66 0.66 81 1010.6
20260509044506 71 180 0.0 0.0 0.00 0.66 0.66 80 1010.4
20260509044006 71 180 1.0 6.0 0.00 0.66 0.66 80 1010.3
20260509043506 71 181 3.0 8.0 0.00 0.66 0.66 80 1010.1
20260509042506 72 188 5.0 9.0 0.00 0.66 0.66 79 1010.7
20260509042006 72 177 2.0 8.0 0.00 0.66 0.66 79 1010.5
20260509041506 72 170 3.0 7.0 0.00 0.66 0.66 78 1010.7
20260509041006 72 175 2.0 9.0 0.00 0.66 0.66 78 1010.4
20260509040506 72 166 6.0 12.0 0.00 0.66 0.66 78 1010.2
20260509040006 72 168 6.0 12.0 0.00 0.66 0.66 78 1010.4
20260509035007 72 158 3.0 7.0 0.00 0.66 0.66 78 1010.6
20260509034506 72 161 3.0 7.0 0.00 0.66 0.66 78 1011.1
20260509034006 73 155 0.0 0.0 0.00 0.66 0.66 78 1011.5
20260509033506 72 155 0.0 0.0 0.00 0.66 0.66 78 1011.4
20260509032506 72 155 0.0 2.0 0.00 0.66 0.66 78 1010.9
20260509032007 72 155 1.0 3.0 0.00 0.66 0.66 78 1010.8
20260509031506 72 155 0.0 0.0 0.00 0.66 0.66 78 1010.9
20260509031006 72 155 0.0 3.0 0.00 0.66 0.66 78 1010.8
20260509030506 72 155 2.0 3.0 0.00 0.66 0.66 78 1010.9
20260509030006 72 105 1.0 5.0 0.00 0.66 0.66 78 1010.9
20260509025506 72 132 1.0 6.0 0.00 0.66 0.66 78 1010.7
20260509024506 72 163 0.0 1.0 0.00 0.66 0.66 78 1010.4
20260509024006 72 163 0.0 2.0 0.00 0.66 0.66 78 1009.8
20260509023506 72 163 2.0 12.0 0.00 0.66 0.66 78 1009.6
20260509022506 72 176 5.0 12.0 0.00 0.66 0.66 78 1009.3
20260509022006 72 169 7.0 15.0 0.00 0.66 0.66 78 1009.2
20260509021506 72 179 6.0 12.0 0.00 0.66 0.66 78 1009.2
20260509021006 72 173 5.0 10.0 0.00 0.66 0.66 77 1009.3
20260509020506 72 176 5.0 9.0 0.00 0.66 0.66 77 1009.3
20260509020006 72 179 6.0 13.0 0.00 0.66 0.66 77 1009.1
20260509015505 72 167 7.0 13.0 0.00 0.66 0.66 76 1009.2
20260509015006 72 169 7.0 13.0 0.00 0.66 0.66 76 1009.2
20260509014506 72 174 6.0 12.0 0.00 0.66 0.66 76 1009.0
20260509014006 72 170 5.0 8.0 0.00 0.66 0.66 76 1009.1
20260509013506 72 173 4.0 8.0 0.00 0.66 0.66 76 1009.2
20260509013006 72 177 1.0 6.0 0.00 0.66 0.66 76 1009.1
20260509012505 73 169 3.0 8.0 0.00 0.66 0.66 76 1009.2
20260509012006 73 164 4.0 8.0 0.00 0.66 0.66 75 1009.2
20260509011006 73 177 5.0 8.0 0.00 0.66 0.66 75 1009.2
20260509010506 73 182 2.0 7.0 0.00 0.66 0.66 74 1009.1
20260509010006 73 182 3.0 8.0 0.00 0.66 0.66 74 1009.0
20260509005506 73 159 2.0 8.0 0.00 0.66 0.66 73 1009.0
20260509004505 74 156 7.0 12.0 0.00 0.66 0.66 73 1008.7
20260509004006 74 166 5.0 12.0 0.00 0.66 0.66 73 1008.7
20260509003505 74 178 8.0 13.0 0.00 0.66 0.66 72 1008.6
20260509002506 74 159 9.0 13.0 0.00 0.66 0.66 71 1008.6
20260509001506 74 187 4.0 13.0 0.00 0.66 0.66 71 1008.6
20260509001005 74 149 8.0 13.0 0.00 0.66 0.66 71 1008.6
20260509000505 75 178 5.0 14.0 0.00 0.66 0.66 70 1008.6
20260509000005 75 160 9.0 15.0 0.00 0.66 0.66 70 1008.7
20260508235006 75 169 9.0 15.0 0.00 0.66 0.66 70 1008.9
20260508234506 75 173 5.0 12.0 0.00 0.66 0.66 70 1009.0
20260508234006 75 176 7.0 12.0 0.00 0.66 0.66 70 1009.0
20260508233006 75 174 5.0 15.0 0.00 0.66 0.66 69 1009.0
20260508232505 75 188 10.0 13.0 0.00 0.66 0.66 68 1009.1
20260508232006 75 176 7.0 13.0 0.00 0.66 0.66 68 1009.1
20260508231505 76 187 6.0 10.0 0.00 0.66 0.66 68 1009.1
20260508231006 76 174 7.0 13.0 0.00 0.66 0.66 67 1009.1
20260508230006 76 188 5.0 12.0 0.00 0.66 0.66 68 1009.2
20260508225505 76 187 6.0 10.0 0.00 0.66 0.66 67 1009.2
20260508224505 76 175 5.0 10.0 0.00 0.66 0.66 67 1009.3
20260508223505 76 182 7.0 13.0 0.00 0.66 0.66 66 1009.2
20260508223005 77 175 5.0 14.0 0.00 0.66 0.66 66 1009.2
20260508222506 77 170 9.0 13.0 0.00 0.66 0.66 66 1009.2
20260508222005 77 187 7.0 12.0 0.00 0.66 0.66 65 1009.1
20260508221505 78 169 7.0 12.0 0.00 0.66 0.66 64 1009.0
20260508220505 78 176 7.0 13.0 0.00 0.66 0.66 65 1009.0
20260508220005 78 187 4.0 10.0 0.00 0.66 0.66 64 1009.1
20260508215506 77 171 3.0 9.0 0.00 0.66 0.66 65 1009.0
20260508215005 78 134 9.0 14.0 0.00 0.66 0.66 64 1009.0
20260508214006 78 166 7.0 17.0 0.00 0.66 0.66 64 1009.0
20260508213505 78 145 9.0 13.0 0.00 0.66 0.66 63 1009.1
20260508213006 78 171 9.0 15.0 0.00 0.66 0.66 62 1009.0
20260508211505 78 171 7.0 15.0 0.00 0.66 0.66 63 1009.2
20260508211005 77 144 8.0 13.0 0.00 0.66 0.66 62 1009.7
20260508210505 78 166 5.0 13.0 0.00 0.66 0.66 62 1009.9
20260508210005 78 183 8.0 13.0 0.00 0.66 0.66 63 1010.0
20260508205505 77 195 5.0 9.0 0.00 0.66 0.66 63 1010.1
20260508205005 76 233 4.0 10.0 0.00 0.66 0.66 65 1010.4
20260508204505 75 184 2.0 13.0 0.00 0.66 0.66 66 1010.6
20260508204006 75 182 4.0 12.0 0.00 0.66 0.66 66 1010.9
20260508203006 76 192 6.0 13.0 0.00 0.66 0.66 64 1011.0
20260508202505 76 193 5.0 13.0 0.00 0.66 0.66 64 1011.0
20260508202005 76 206 3.0 8.0 0.00 0.66 0.66 65 1010.9
20260508201505 76 195 3.0 9.0 0.00 0.66 0.66 64 1010.9
20260508201005 76 200 3.0 8.0 0.00 0.66 0.66 64 1011.1
20260508200505 77 191 4.0 13.0 0.00 0.66 0.66 63 1011.1
20260508195505 77 209 4.0 10.0 0.00 0.66 0.66 62 1011.1
20260508195006 77 188 4.0 9.0 0.00 0.66 0.66 62 1011.2
20260508194505 77 186 6.0 13.0 0.00 0.66 0.66 61 1011.2
20260508194005 78 181 6.0 13.0 0.00 0.66 0.66 62 1011.3
20260508193505 78 187 5.0 12.0 0.00 0.66 0.66 63 1011.4
20260508192505 78 188 5.0 10.0 0.00 0.66 0.66 61 1011.3
20260508191505 79 151 6.0 12.0 0.00 0.66 0.66 59 1011.5
20260508191005 78 185 5.0 14.0 0.00 0.66 0.66 58 1011.5
20260508190005 79 211 5.0 12.0 0.00 0.66 0.66 57 1011.5
20260508185505 79 182 5.0 12.0 0.00 0.66 0.66 59 1011.5
20260508185005 78 222 2.0 12.0 0.00 0.66 0.66 59 1011.4
20260508184004 78 160 8.0 13.0 0.00 0.66 0.66 58 1011.5
20260508183005 78 183 5.0 13.0 0.00 0.66 0.66 58 1011.8
20260508182505 78 229 3.0 7.0 0.00 0.66 0.66 58 1011.8
20260508180505 78 191 5.0 9.0 0.00 0.66 0.66 59 1012.2
20260508175505 77 188 3.0 8.0 0.00 0.66 0.66 60 1012.4
20260508175005 77 158 7.0 13.0 0.00 0.66 0.66 60 1012.4
20260508174505 76 185 7.0 13.0 0.00 0.66 0.66 61 1012.3
20260508174005 76 159 6.0 9.0 0.00 0.66 0.66 61 1012.4
20260508173505 75 107 3.0 13.0 0.00 0.66 0.66 60 1012.5
20260508173005 76 183 5.0 8.0 0.00 0.66 0.66 60 1012.5
20260508172505 75 154 4.0 10.0 0.00 0.66 0.66 60 1012.8
20260508172005 75 139 5.0 13.0 0.00 0.66 0.66 63 1013.0
20260508171004 74 186 5.0 7.0 0.00 0.66 0.66 62 1013.5
20260508170004 74 150 5.0 10.0 0.00 0.66 0.66 61 1013.6
20260508165505 74 158 5.0 13.0 0.00 0.66 0.66 62 1013.7
20260508165005 74 200 3.0 8.0 0.00 0.66 0.66 63 1013.9
20260508164005 73 200 6.0 10.0 0.00 0.66 0.66 62 1014.0
20260508163505 71 171 6.0 8.0 0.00 0.66 0.66 64 1014.0
20260508162505 72 215 5.0 9.0 0.00 0.66 0.66 65 1014.2
20260508162005 71 210 5.0 10.0 0.00 0.66 0.66 66 1014.3
20260508161504 69 188 2.0 8.0 0.00 0.66 0.66 69 1014.3
20260508161005 69 171 6.0 12.0 0.00 0.66 0.66 68 1014.3
20260508160505 68 167 5.0 10.0 0.00 0.66 0.66 69 1014.3
20260508160004 68 186 7.0 13.0 0.00 0.66 0.66 69 1014.4
20260508155505 68 175 9.0 13.0 0.00 0.66 0.66 68 1014.4
20260508155005 68 189 5.0 13.0 0.00 0.66 0.66 70 1014.5
20260508154504 68 168 5.0 13.0 0.00 0.66 0.66 70 1014.7
20260508154005 68 149 3.0 7.0 0.00 0.66 0.66 70 1014.8
20260508153505 68 167 6.0 10.0 0.00 0.66 0.66 69 1014.7
20260508152004 68 179 5.0 10.0 0.00 0.66 0.66 72 1014.7
20260508151504 67 178 5.0 8.0 0.00 0.66 0.66 72 1014.8
20260508150504 67 158 4.0 8.0 0.00 0.66 0.66 74 1014.7
20260508150005 67 176 4.0 9.0 0.00 0.66 0.66 74 1014.8
20260508145504 67 184 2.0 5.0 0.00 0.66 0.66 74 1014.8
20260508145004 67 172 5.0 8.0 0.00 0.66 0.66 75 1014.9
20260508144004 65 179 3.0 9.0 0.00 0.66 0.66 78 1014.8
20260508143504 65 181 1.0 7.0 0.00 0.66 0.66 79 1014.9
20260508143004 65 160 2.0 10.0 0.00 0.66 0.66 80 1014.9
20260508142504 65 167 5.0 9.0 0.00 0.66 0.66 81 1014.9
20260508142005 64 174 2.0 9.0 0.01 0.66 0.66 83 1014.9
20260508141505 63 145 1.0 3.0 0.01 0.66 0.66 84 1015.0
20260508141005 64 153 1.0 6.0 0.01 0.66 0.66 83 1015.1
20260508140505 63 162 4.0 10.0 0.01 0.66 0.66 85 1015.1
20260508140005 63 161 5.0 7.0 0.01 0.66 0.66 84 1015.1
20260508135005 63 103 1.0 5.0 0.03 0.66 0.66 87 1014.9
20260508134504 62 162 1.0 2.0 0.03 0.66 0.66 88 1015.0
20260508134005 62 162 2.0 7.0 0.06 0.66 0.66 88 1014.9
20260508133504 61 163 2.0 6.0 0.07 0.66 0.66 89 1014.8
20260508133005 61 161 3.0 5.0 0.07 0.66 0.66 90 1015.0
20260508132504 61 155 2.0 7.0 0.07 0.66 0.66 90 1014.9
20260508132005 61 173 2.0 7.0 0.06 0.64 0.64 91 1015.0
20260508131504 60 176 3.0 5.0 0.07 0.64 0.64 92 1015.0
20260508131004 60 145 0.0 0.0 0.07 0.64 0.64 92 1014.9
20260508130504 60 145 0.0 0.0 0.07 0.64 0.64 92 1015.1
20260508130004 60 145 0.0 0.0 0.07 0.64 0.64 91 1014.9
20260508125505 60 145 0.0 2.0 0.06 0.63 0.63 91 1015.5
20260508125004 60 179 0.0 1.0 0.05 0.62 0.62 91 1015.5
20260508124504 60 179 1.0 3.0 0.05 0.62 0.62 91 1015.0
20260508124004 60 179 1.0 3.0 0.02 0.60 0.60 91 1015.0
20260508123504 60 179 1.0 3.0 0.01 0.59 0.59 90 1015.6
20260508123004 60 180 1.0 2.0 0.01 0.59 0.59 90 1015.6
20260508122004 60 179 0.0 1.0 0.01 0.59 0.59 90 1015.3
20260508121504 60 197 1.0 7.0 0.00 0.57 0.57 90 1015.3
20260508121004 60 178 5.0 7.0 0.05 0.57 0.57 90 1015.1
20260508120504 60 184 5.0 9.0 0.10 0.57 0.57 91 1015.1
20260508115504 60 175 7.0 10.0 0.17 0.57 0.57 92 1015.1